If you wish to contribute or participate in the discussions about articles you are invited to join SKYbrary as a registered user

 Actions

Aktobe / Aktyubinsk Airport

From SKYbrary Wiki

UATT
Airport
ICAO: UATT – IATA: AKX
Summary
Name Aktobe / Aktyubinsk Airport
Region Asia and Pacific
Territory Kazakhstan KZ.gif
Location Aktobe
Serving Aktobe
Elevation 224.942 m <br />738 ft <br />738 ft224.942 m <br />
Coordinates 50° 14' 59.42" N, 57° 12' 8.56" E
Runways
Designator Length Width Surface ROPS
13/31 3097 m10,160.761 ft <br /> 60 m196.85 ft <br /> CON /


METAR
Observation UATT 181830Z 28004MPS CAVOK 05/M04 Q1017 R30/CLRD70 NOSIG RMK QFE743/0991
Station Aktjubinsk
Date/Time 18 September 2021 18:30:00
Wind direction 280°
Wind speed kts
Lowest cloud amount clouds and visibility OK
Temperature 5°C
Dew point
Humidity 52%
QNH 1017 hPa
Weather condition n/a

BS
Tag(s) Bird Strike
CFIT
Tag(s) Altimeter Temperature Error Correction

Aktobe Airport

ICAO: UATT IATA: AKX

Description

International airport serving the city of Aktobe.

Climatology

Cold Semi-arid climate (Köppen climate classification BSk). - Hot, sometimes extremely hot summers and cold, sometimes very cold winters. Some snowfall during the winter. Areas featuring cold semi-arid climates are sometimes subject to major temperature swings during a 24 hour period.

Maps

Terrain

Loading map...

Airport Layout

Loading map...


Accidents & Serious Incidents at or in vicinity of UATT

None on SKYbrary